FW2847 Weather Reports


Display with metric or nautical units.
time (UTC)temp
F
wind
direction
speed
MPH
gust
MPH
rain 1hr
in
rain 24hr
in
rain mn
in
humidity
%
barometer
mb
20260508153203 58 297 1.0 6.0 0.00 0.00 0.00 56 1020.6
20260508152702 58 109 1.0 8.0 0.00 0.00 0.00 57 1020.6
20260508152200 58 101 1.0 8.0 0.00 0.00 0.00 55 1020.6
20260508151701 58 106 0.0 7.0 0.00 0.00 0.00 57 1020.6
20260508151201 58 127 0.0 7.0 0.00 0.00 0.00 56 1020.6
20260508150931 58 141 0.0 5.0 0.00 0.00 0.00 59 1020.6
20260508150201 57 68 0.0 5.0 0.00 0.00 0.00 59 1020.6
20260508145702 56 217 0.0 3.0 0.00 0.00 0.00 61 1020.6
20260508145435 56 109 0.0 4.0 0.00 0.00 0.00 61 1020.6
20260508144701 55 176 0.0 4.0 0.00 0.00 0.00 61 1020.6
20260508144201 55 202 1.0 4.0 0.00 0.00 0.00 63 1020.6
20260508143659 55 78 1.0 4.0 0.00 0.00 0.00 61 1020.6
20260508143157 56 226 0.0 2.0 0.00 0.00 0.00 62 1020.6
20260508142658 56 108 0.0 2.0 0.00 0.00 0.00 62 1020.6
20260508142200 55 94 0.0 3.0 0.00 0.00 0.00 64 1020.6
20260508141657 55 101 0.0 3.0 0.00 0.00 0.00 64 1020.6
20260508141159 54 274 0.0 3.0 0.00 0.00 0.00 65 1020.6
20260508140658 54 342 0.0 1.0 0.00 0.00 0.00 66 1020.6
20260508140159 53 288 0.0 1.0 0.00 0.00 0.00 67 1020.6
20260508135658 53 272 0.0 1.0 0.00 0.00 0.00 69 1020.6
20260508135156 52 288 0.0 0.0 0.00 0.00 0.00 70 1020.6
20260508134656 51 288 0.0 2.0 0.00 0.00 0.00 72 1020.6
20260508134156 50 288 0.0 3.0 0.00 0.00 0.00 73 1020.6
20260508133655 50 288 1.0 3.0 0.00 0.00 0.00 75 1020.6
20260508133154 49 279 1.0 4.0 0.00 0.00 0.00 77 1020.6
20260508132925 49 288 0.0 4.0 0.00 0.00 0.00 81 1020.6
20260508132153 47 313 1.0 4.0 0.00 0.00 0.00 83 1020.6
20260508131920 47 293 1.0 6.0 0.00 0.00 0.00 85 1020.6
20260508131153 45 268 2.0 7.0 0.00 0.00 0.00 86 1020.6
20260508131148 46 291 2.0 6.0 0.00 0.00 0.00 87 1020.6
20260508130145 45 295 2.0 7.0 0.00 0.00 0.00 86 1020.6
20260508125646 44 279 2.0 5.0 0.00 0.00 0.00 87 1020.6
20260508125146 44 278 3.0 5.0 0.00 0.00 0.00 87 1020.6
20260508124644 44 300 2.0 5.0 0.00 0.00 0.00 87 1020.6
20260508124142 44 317 2.0 4.0 0.00 0.00 0.00 88 1020.6
20260508123642 43 352 3.0 5.0 0.00 0.00 0.00 88 1020.6
20260508123143 43 328 2.0 5.0 0.00 0.00 0.00 88 1020.6
20260508122642 43 327 2.0 4.0 0.00 0.00 0.00 88 1020.6
20260508122415 43 315 1.0 2.0 0.00 0.00 0.00 89 1020.6
20260508121643 43 314 0.0 2.0 0.00 0.00 0.00 89 1020.6
20260508121139 43 342 0.0 2.0 0.00 0.00 0.00 89 1020.6
20260508120640 43 0 0.0 1.0 0.00 0.00 0.00 88 1020.6
20260508120413 43 328 0.0 0.0 0.00 0.00 0.00 88 1020.6
20260508115639 43 359 0.0 0.0 0.00 0.00 0.00 88 1020.6
20260508115140 43 359 0.0 1.0 0.00 0.00 0.00 88 1020.6
20260508114639 43 359 0.0 1.0 0.00 0.00 0.00 88 1020.6
20260508114140 42 36 0.0 1.0 0.00 0.00 0.00 88 1020.6
20260508113913 42 300 0.0 0.0 0.00 0.00 0.00 87 1020.6
20260508113140 42 288 0.0 2.0 0.00 0.00 0.00 88 1020.6
20260508112640 41 297 0.0 2.0 0.00 0.00 0.00 87 1020.6
20260508112141 41 285 1.0 3.0 0.00 0.00 0.00 88 1020.6
20260508111641 41 292 1.0 3.0 0.00 0.00 0.00 87 1020.6
20260508111141 41 297 1.0 3.0 0.00 0.00 0.00 87 1020.6
20260508110640 41 306 0.0 3.0 0.00 0.00 0.00 88 1020.6
20260508110138 41 309 1.0 4.0 0.00 0.00 0.00 87 1020.6
20260508105640 41 336 1.0 4.0 0.00 0.00 0.00 87 1020.6
20260508105137 42 336 1.0 4.0 0.00 0.00 0.00 86 1020.6
20260508104636 42 334 1.0 4.0 0.00 0.00 0.00 87 1020.6
20260508104134 42 85 1.0 4.0 0.00 0.00 0.00 86 1020.6
20260508103635 43 61 1.0 5.0 0.00 0.00 0.00 85 1020.6
20260508103134 43 71 0.0 5.0 0.00 0.00 0.00 82 1020.6
20260508102632 44 249 0.0 0.0 0.00 0.00 0.00 83 1020.6
20260508102132 43 224 0.0 0.0 0.00 0.00 0.00 83 1020.6
20260508101633 44 227 0.0 0.0 0.00 0.00 0.00 83 1020.6
20260508101133 44 227 0.0 0.0 0.00 0.00 0.00 84 1020.6
20260508100632 43 262 0.0 1.0 0.00 0.00 0.00 84 1020.6
20260508100404 43 264 0.0 1.0 0.00 0.00 0.00 84 1020.6
20260508095633 43 270 0.0 0.0 0.00 0.00 0.00 83 1020.6
20260508095131 44 270 0.0 0.0 0.00 0.00 0.00 83 1020.6
20260508094632 44 270 0.0 0.0 0.00 0.00 0.00 83 1020.6
20260508094133 44 275 0.0 1.0 0.00 0.00 0.00 83 1020.6
20260508093632 44 275 0.0 1.0 0.00 0.00 0.00 83 1020.6
20260508093131 45 283 0.0 0.0 0.00 0.00 0.00 82 1020.6
20260508092631 45 282 0.0 0.0 0.00 0.00 0.00 82 1020.6
20260508092133 45 283 0.0 1.0 0.00 0.00 0.00 82 1020.6
20260508091633 45 283 0.0 1.0 0.00 0.00 0.00 82 1020.6
20260508091133 45 290 0.0 0.0 0.00 0.00 0.00 82 1020.6
20260508090633 45 290 0.0 0.0 0.00 0.00 0.00 82 1020.6
20260508090133 45 290 1.0 3.0 0.00 0.00 0.00 82 1020.6
20260508085632 45 290 1.0 3.0 0.00 0.00 0.00 82 1020.6
20260508085133 44 286 0.0 3.0 0.00 0.00 0.00 83 1020.6
20260508084633 44 279 0.0 2.0 0.00 0.00 0.00 81 1020.6
20260508084133 44 288 1.0 3.0 0.00 0.00 0.00 82 1020.6
20260508083631 44 283 2.0 3.0 0.00 0.00 0.00 81 1020.6
20260508083131 44 299 2.0 5.0 0.00 0.00 0.00 80 1020.6
20260508082631 44 292 2.0 5.0 0.00 0.00 0.00 80 1020.6
20260508082404 44 291 2.0 5.0 0.00 0.00 0.00 81 1020.6
20260508081631 44 293 1.0 4.0 0.00 0.00 0.00 80 1020.6
20260508081131 44 311 1.0 4.0 0.00 0.00 0.00 81 1020.6
20260508080634 44 320 0.0 2.0 0.00 0.00 0.00 81 1020.6
20260508080132 45 25 0.0 1.0 0.00 0.01 0.00 80 1020.6
20260508075633 45 37 0.0 2.0 0.00 0.01 0.00 80 1020.6
20260508075131 46 56 0.0 2.0 0.00 0.01 0.00 79 1020.6
20260508074638 46 77 0.0 0.0 0.00 0.01 0.00 77 1020.6
20260508074633 46 77 0.0 1.0 0.00 0.01 0.00 78 1020.6
20260508073632 46 77 0.0 0.0 0.00 0.01 0.00 75 1020.6
20260508073400 46 77 0.0 0.0 0.00 0.01 0.00 75 1020.6
20260508072628 46 67 0.0 1.0 0.00 0.01 0.00 74 1020.6
20260508072129 46 66 0.0 1.0 0.00 0.01 0.00 74 1020.6
20260508071627 46 277 0.0 0.0 0.00 0.01 0.00 73 1020.6
20260508071130 46 277 0.0 0.0 0.00 0.01 0.00 73 1020.6
20260508070900 47 277 0.0 0.0 0.00 0.01 0.00 72 1020.6
20260508070127 47 277 0.0 0.0 0.00 0.01 0.00 72 1020.6
20260508065629 47 277 0.0 0.0 0.00 0.01 0.00 72 1020.6
20260508065128 47 278 0.0 0.0 0.00 0.01 0.00 71 1020.6
20260508064628 48 278 0.0 0.0 0.00 0.01 0.00 70 1020.6
20260508064129 48 278 0.0 0.0 0.00 0.01 0.00 70 1020.6
20260508063626 49 278 0.0 0.0 0.00 0.01 0.00 69 1020.6
20260508063127 49 278 0.0 0.0 0.00 0.01 0.00 68 1020.6
20260508062855 49 278 0.0 0.0 0.00 0.01 0.00 68 1020.6
20260508062123 50 278 0.0 1.0 0.00 0.01 0.00 68 1020.6
20260508061625 49 278 0.0 2.0 0.00 0.01 0.00 68 1020.6
20260508061124 49 278 0.0 2.0 0.00 0.01 0.00 69 1020.6
20260508060626 49 275 0.0 1.0 0.00 0.01 0.00 69 1020.6
20260508060123 50 275 0.0 1.0 0.00 0.01 0.00 69 1020.6
20260508055622 50 277 0.0 5.0 0.00 0.01 0.01 69 1020.6
20260508055353 50 350 1.0 5.0 0.00 0.01 0.01 69 1020.6
20260508054621 50 327 2.0 5.0 0.00 0.01 0.01 68 1020.6
20260508054122 51 18 3.0 11.0 0.00 0.01 0.01 67 1020.6
20260508053622 51 7 5.0 11.0 0.00 0.01 0.01 66 1020.6
20260508053122 51 327 4.0 9.0 0.00 0.01 0.01 67 1020.6
20260508052620 51 300 2.0 6.0 0.00 0.01 0.01 66 1020.6
20260508052121 51 290 1.0 4.0 0.00 0.01 0.01 65 1020.6
20260508051622 51 291 2.0 7.0 0.00 0.01 0.01 67 1020.6
20260508051354 50 280 3.0 7.0 0.00 0.01 0.01 70 1020.6
20260508050851 50 300 2.0 6.0 0.00 0.01 0.01 69 1020.6
20260508050352 50 299 1.0 3.0 0.00 0.01 0.01 68 1020.6
20260508045619 51 294 1.0 3.0 0.00 0.01 0.01 68 1020.6
20260508045120 50 266 1.0 2.0 0.00 0.01 0.01 68 1020.6
20260508044620 50 308 0.0 2.0 0.00 0.01 0.01 68 1020.6
20260508044349 51 342 0.0 2.0 0.00 0.01 0.01 66 1020.6
20260508043618 52 75 0.0 1.0 0.00 0.01 0.01 65 1020.6
20260508043121 52 123 0.0 2.0 0.00 0.01 0.01 64 1020.6
20260508042616 52 79 2.0 7.0 0.00 0.01 0.01 64 1020.6
20260508042118 52 51 4.0 8.0 0.00 0.01 0.01 63 1020.6
20260508041616 52 46 5.0 9.0 0.00 0.01 0.01 61 1020.6
20260508041119 53 9 6.0 10.0 0.00 0.01 0.01 58 1020.6
20260508040618 52 307 6.0 10.0 0.00 0.01 0.01 58 1020.6
20260508040115 53 303 3.0 10.0 0.00 0.01 0.01 58 1020.6
20260508035615 55 282 0.0 3.0 0.00 0.01 0.01 52 1020.6
20260508035117 54 283 0.0 1.0 0.00 0.01 0.01 51 1020.6
20260508034616 54 283 0.0 1.0 0.00 0.01 0.01 53 1020.6
20260508034116 53 289 0.0 1.0 0.00 0.01 0.01 55 1020.6
20260508033616 54 295 0.0 1.0 0.00 0.01 0.01 54 1020.6
20260508033347 54 292 0.0 2.0 0.00 0.01 0.01 55 1020.6
20260508032614 54 292 1.0 4.0 0.00 0.01 0.01 54 1020.6
20260508032112 53 293 1.0 4.0 0.00 0.01 0.01 55 1020.6
20260508031612 53 288 2.0 4.0 0.00 0.01 0.01 57 1020.6
20260508031111 53 291 3.0 7.0 0.00 0.01 0.01 56 1020.6
20260508030610 54 290 5.0 9.0 0.00 0.01 0.01 55 1020.6
20260508030110 55 293 5.0 9.0 0.00 0.01 0.01 54 1020.6
20260508025613 55 280 5.0 11.0 0.00 0.01 0.01 53 1020.6
20260508025108 56 290 6.0 11.0 0.00 0.01 0.01 53 1020.6
20260508024608 56 284 7.0 13.0 0.00 0.01 0.01 52 1020.6
20260508024110 56 269 6.0 13.0 0.00 0.01 0.01 51 1020.6
20260508023840 56 269 5.0 10.0 0.00 0.01 0.01 51 1020.6
20260508023110 56 288 2.0 10.0 0.00 0.01 0.01 51 1020.6
20260508022842 56 299 2.0 8.0 0.00 0.01 0.01 49 1020.6
20260508022110 57 290 3.0 8.0 0.00 0.01 0.01 48 1020.6
20260508021609 58 274 4.0 13.0 0.00 0.01 0.01 46 1020.6
20260508021109 58 285 5.0 13.0 0.00 0.01 0.01 45 1020.6
20260508020610 57 311 2.0 11.0 0.00 0.01 0.01 47 1020.6
20260508020340 57 113 0.0 1.0 0.00 0.01 0.01 46 1020.6
20260508015611 57 28 0.0 1.0 0.00 0.01 0.01 47 1020.6
20260508015109 58 27 1.0 4.0 0.00 0.01 0.01 46 1020.6
20260508014841 58 49 1.0 4.0 0.00 0.01 0.01 44 1020.6
20260508014340 59 297 1.0 4.0 0.00 0.01 0.01 43 1020.6
20260508014230 59 294 2.0 4.0 0.00 0.01 0.01 42 1020.6
20260508013111 60 296 1.0 4.0 0.00 0.01 0.01 41 1020.6
20260508012608 60 284 1.0 2.0 0.00 0.01 0.01 41 1020.6
20260508012338 60 335 1.0 2.0 0.00 0.01 0.01 40 1020.6
20260508011840 60 293 1.0 2.0 0.00 0.01 0.01 41 1020.6
20260508011105 60 292 0.0 2.0 0.00 0.01 0.01 41 1020.6
20260508010605 60 55 0.0 0.0 0.00 0.01 0.01 38 1020.6
20260508010106 60 55 0.0 0.0 0.00 0.01 0.01 37 1020.6
20260508005836 60 55 0.0 0.0 0.00 0.01 0.01 37 1020.6
20260508005104 60 52 0.0 0.0 0.00 0.01 0.01 37 1020.6
20260508004604 60 52 0.0 0.0 0.00 0.01 0.01 37 1020.6
20260508004106 60 52 0.0 0.0 0.00 0.01 0.01 39 1020.6
20260508003604 61 51 0.0 0.0 0.00 0.01 0.01 38 1020.6
20260508003106 62 104 0.0 0.0 0.00 0.01 0.01 36 1020.6
20260508002605 62 104 0.0 0.0 0.00 0.01 0.01 35 1020.6
20260508002107 62 103 0.0 1.0 0.00 0.01 0.01 37 1020.6
20260508001604 61 102 0.0 1.0 0.00 0.01 0.01 39 1020.6
20260508001105 61 108 0.0 1.0 0.00 0.01 0.01 39 1020.6
20260508000605 61 357 0.0 0.0 0.00 0.01 0.01 36 1020.6
20260508000107 61 11 0.0 0.0 0.00 0.01 0.01 33 1020.6
20260507235604 62 10 0.0 0.0 0.00 0.01 0.01 33 1020.6
20260507235106 62 10 0.0 0.0 0.00 0.01 0.01 34 1020.6
20260507234604 61 10 0.0 0.0 0.00 0.01 0.01 33 1020.6
20260507234104 61 10 0.0 0.0 0.00 0.01 0.01 33 1020.6
20260507233611 62 10 0.0 0.0 0.00 0.01 0.01 34 1020.6
20260507233607 62 10 0.0 0.0 0.00 0.01 0.01 33 1020.6
20260507232606 62 10 0.0 1.0 0.00 0.01 0.01 33 1020.6
20260507232107 62 10 0.0 1.0 0.00 0.01 0.01 35 1020.6
20260507231604 62 299 0.0 0.0 0.00 0.01 0.01 34 1020.6
20260507231335 62 298 0.0 0.0 0.00 0.01 0.01 35 1020.6
20260507230606 62 298 0.0 2.0 0.00 0.01 0.01 34 1020.6
20260507230106 62 34 0.0 4.0 0.00 0.01 0.01 33 1020.6
20260507225605 62 1 0.0 4.0 0.00 0.01 0.01 32 1020.6
20260507225105 63 303 0.0 2.0 0.00 0.01 0.01 33 1020.6
20260507224606 63 326 0.0 2.0 0.00 0.01 0.01 34 1020.6
20260507224104 64 39 0.0 2.0 0.00 0.01 0.01 33 1020.6
20260507223604 64 159 0.0 0.0 0.00 0.01 0.01 31 1020.6
20260507223107 64 131 0.0 2.0 0.00 0.01 0.01 33 1020.6
20260507222604 63 252 0.0 2.0 0.00 0.01 0.01 31 1020.6
20260507222335 63 321 0.0 2.0 0.00 0.01 0.01 34 1020.6
20260507221604 62 334 0.0 0.0 0.00 0.01 0.01 35 1020.6
20260507221102 61 76 0.0 0.0 0.00 0.01 0.01 34 1020.6
20260507220602 61 68 0.0 0.0 0.00 0.01 0.01 35 1020.6
20260507220104 61 309 1.0 5.0 0.00 0.01 0.01 36 1020.6
20260507215835 62 311 2.0 5.0 0.00 0.01 0.01 32 1020.6
20260507215103 62 304 2.0 6.0 0.00 0.01 0.01 34 1020.6
20260507214600 62 302 2.0 6.0 0.00 0.01 0.01 34 1020.6
20260507214103 62 290 2.0 5.0 0.00 0.01 0.01 35 1020.6
20260507213832 62 284 3.0 7.0 0.00 0.01 0.01 31 1020.6
20260507213100 63 310 5.0 9.0 0.00 0.01 0.01 34 1020.6
20260507212602 63 298 5.0 9.0 0.00 0.01 0.01 31 1020.6
20260507212101 64 293 5.0 15.0 0.00 0.01 0.01 31 1020.6
20260507211833 65 290 5.0 15.0 0.00 0.01 0.01 32 1020.6
20260507211107 64 300 4.0 11.0 0.00 0.01 0.01 34 1020.6
20260507211100 64 300 5.0 11.0 0.00 0.01 0.01 34 1020.6
20260507210100 64 305 4.0 7.0 0.00 0.01 0.01 34 1020.6
20260507205558 64 305 4.0 7.0 0.00 0.01 0.01 32 1020.6
20260507205331 65 297 4.0 10.0 0.00 0.01 0.01 32 1020.6
20260507204600 65 296 5.0 10.0 0.00 0.02 0.01 33 1020.6
20260507204058 65 296 5.0 9.0 0.00 0.02 0.01 34 1020.6
20260507203830 66 316 5.0 9.0 0.00 0.02 0.01 34 1020.6
20260507203059 65 311 4.0 10.0 0.00 0.03 0.01 34 1020.6
20260507202558 65 308 4.0 10.0 0.00 0.04 0.01 32 1020.6
20260507202059 66 331 3.0 9.0 0.00 0.05 0.01 30 1020.6
20260507201558 66 281 2.0 10.0 0.00 0.06 0.01 35 1020.6
20260507201056 65 31 3.0 10.0 0.00 0.07 0.01 34 1020.6
20260507200557 65 301 3.0 9.0 0.00 0.07 0.01 32 1020.6
20260507200057 66 329 3.0 9.0 0.00 0.08 0.01 37 1020.6
20260507195557 65 338 4.0 9.0 0.00 0.09 0.01 36 1020.6
20260507195055 65 335 7.0 13.0 0.00 0.10 0.01 36 1020.6
20260507194554 64 311 7.0 13.0 0.00 0.11 0.01 37 1020.6
20260507194055 64 300 6.0 11.0 0.00 0.12 0.01 35 1020.6
20260507193555 63 283 7.0 16.0 0.00 0.13 0.01 34 1020.6
20260507193054 63 269 8.0 16.0 0.00 0.14 0.01 38 1020.6
20260507192554 62 279 9.0 20.0 0.00 0.15 0.01 34 1020.6
20260507192056 63 289 9.0 20.0 0.00 0.17 0.01 35 1020.6
20260507191556 63 283 9.0 17.0 0.00 0.18 0.01 35 1020.6
20260507191055 62 288 10.0 18.0 0.00 0.18 0.01 36 1020.6
20260507190552 62 304 7.0 18.0 0.00 0.18 0.01 35 1020.6
20260507190053 62 313 3.0 12.0 0.00 0.18 0.01 35 1020.6
20260507185553 62 287 2.0 8.0 0.00 0.18 0.01 42 1020.6
20260507185326 61 221 2.0 9.0 0.00 0.18 0.01 36 1020.6
20260507184552 60 290 3.0 10.0 0.00 0.18 0.01 35 1020.6
20260507184052 59 307 4.0 11.0 0.00 0.18 0.01 36 1020.6
20260507183553 59 295 4.0 11.0 0.00 0.18 0.01 39 1020.6
20260507183053 59 304 4.0 9.0 0.00 0.18 0.01 39 1020.6
20260507182550 59 296 3.0 9.0 0.00 0.18 0.01 36 1020.6
20260507182051 58 292 2.0 8.0 0.00 0.18 0.01 37 1020.6
20260507181552 58 295 2.0 6.0 0.00 0.18 0.01 37 1020.6
20260507181051 58 285 2.0 6.0 0.00 0.18 0.01 38 1020.6
20260507180551 58 288 2.0 6.0 0.00 0.18 0.01 38 1020.6
20260507180051 58 288 1.0 5.0 0.00 0.18 0.01 40 1020.6
20260507175551 58 302 0.0 3.0 0.00 0.18 0.01 40 1020.6
20260507175323 57 273 0.0 0.0 0.00 0.18 0.01 45 1020.6
20260507174551 56 293 0.0 1.0 0.00 0.18 0.01 45 1020.6
20260507174050 56 293 0.0 1.0 0.00 0.18 0.01 46 1020.6
20260507173550 56 290 0.0 0.0 0.00 0.18 0.01 46 1020.6
20260507173319 56 290 0.0 1.0 0.00 0.18 0.01 44 1020.6
20260507172548 56 309 0.0 3.0 0.00 0.18 0.01 44 1020.6
20260507172051 56 301 0.0 3.0 0.00 0.18 0.01 44 1020.6
20260507171818 56 88 0.0 0.0 0.00 0.18 0.01 42 1020.6
20260507171048 56 80 0.0 2.0 0.00 0.18 0.01 43 1020.6
20260507170551 56 80 0.0 2.0 0.00 0.18 0.01 45 1020.6
20260507170048 56 113 0.0 3.0 0.00 0.18 0.01 45 1020.6
20260507165819 56 116 0.0 3.0 0.00 0.18 0.01 45 1020.6
20260507165323 56 95 0.0 2.0 0.00 0.18 0.01 43 1020.6
20260507164547 56 88 0.0 3.0 0.00 0.18 0.01 42 1020.6
20260507164045 56 236 1.0 5.0 0.00 0.18 0.01 42 1020.6
20260507163547 56 278 1.0 5.0 0.00 0.18 0.01 44 1020.6
20260507163047 56 311 1.0 5.0 0.00 0.18 0.01 41 1020.6
20260507162545 56 359 1.0 5.0 0.00 0.18 0.01 42 1020.6
20260507162044 57 79 1.0 6.0 0.00 0.18 0.01 46 1020.6
20260507161545 58 135 2.0 10.0 0.00 0.18 0.01 43 1020.6
20260507161045 58 123 1.0 10.0 0.00 0.18 0.01 39 1020.6
20260507160544 58 88 0.0 4.0 0.00 0.18 0.01 42 1020.6
20260507160043 58 90 1.0 4.0 0.00 0.18 0.01 42 1020.6
20260507155545 59 77 1.0 5.0 0.00 0.18 0.01 38 1020.6
20260507155043 59 167 1.0 5.0 0.00 0.18 0.01 39 1020.6
20260507154542 59 119 1.0 6.0 0.00 0.18 0.01 41 1020.6
20260507154042 58 113 2.0 6.0 0.00 0.18 0.01 41 1020.6